[[{"header":{"parameterUnit":"m.s-1","parameterCategory":1,"la1":30.2991,"la2":30.254,"lo1":-89.0895,"lo2":-89.0444,"dy":0.0017,"dx":0.0017,"nx":28,"ny":28,"refTime":"2025-12-01T03:00:00:Z","depth":0,"parameterNumber":2,"parameterNumberName":"U-component_of_WINDS"},"data":[0,0,0,0,0,0,0,0,0,0,0,0,0,0,0,0,0,0,0,0,0,0,0,0,0,0,0,0,0,0,0,0,0,0,0,0,0,0,0,0,0,0,0,0,0,0,0,0,0,0,0,0,0,0,0,0,0,0,1.9461,1.9461,0,1.9465,1.9465,1.9465,1.944,1.944,1.9439,1.9438,1.9443,1.9444,1.9445,0,0,0,0,0,0,0,0,0,0,0,0,0,1.9433,1.9434,1.9461,1.9461,1.9461,1.9465,1.9465,1.9465,1.9441,1.944,1.9439,1.9438,1.9443,1.9444,1.9445,0,0,0,0,0,0,0,0,0,0,0,0,0,1.9442,1.9434,1.9461,1.9449,1.9448,1.9465,1.9465,1.9465,1.9441,1.944,1.9439,1.9438,1.9442,1.9444,1.9445,1.9473,0,0,1.9448,1.9449,0,0,0,0,0,0,0,0,1.9442,1.9443,1.9451,1.945,1.9449,1.9451,1.9457,1.9468,1.9441,1.9444,1.9438,1.9437,1.9447,1.9447,1.945,1.9473,1.9473,1.9448,1.9449,1.945,1.945,0,0,0,0,0,0,0,1.9441,1.9443,1.9462,1.9451,1.945,1.9444,1.9444,1.9459,1.9451,1.9443,1.9441,1.9442,1.9446,1.9449,1.945,1.9473,1.9448,1.9449,1.945,1.9451,1.9521,1.9522,0,0,0,0,0,0,1.9442,1.9442,1.9462,1.9462,1.9443,1.9446,1.9446,1.9451,1.9451,1.945,1.9443,1.9441,1.9448,1.9449,1.945,1.9484,1.945,1.9451,1.9451,1.952,1.9522,1.9523,0,0,0,0,0,0,1.9441,1.9444,1.9462,1.9452,1.9454,1.9447,1.9454,1.9452,1.9455,1.9451,1.9449,1.9448,1.9447,1.9449,1.9468,1.9484,1.9451,1.9452,1.9519,1.9521,1.9522,1.9552,0,0,0,0,0,0,1.9441,1.9444,1.9454,1.9452,1.9455,1.9479,1.9455,1.9453,1.9458,1.9455,1.9455,1.9454,1.9446,1.9466,1.9469,1.9485,1.9453,1.9517,1.952,1.9522,1.9549,1.9554,1.9559,0,0,0,0,0,1.944,1.9462,1.9454,1.9457,1.9467,1.948,1.9481,1.9472,1.9459,1.9469,1.9467,1.9454,1.9482,1.9468,1.9471,1.9488,1.9516,1.9519,1.9521,1.9547,1.9553,1.9558,0,0,0,0,0,0,1.9465,1.9461,1.9453,1.9475,1.9478,1.9476,1.9488,1.9478,1.9485,1.9482,1.9471,1.9471,1.9493,1.9492,1.9477,1.9516,1.9497,1.95,1.9515,1.9521,1.9526,1.9525,1.9454,0,0,0,0,0,1.9473,1.9483,1.948,1.9499,1.9501,1.9495,1.95,1.9493,1.9496,1.9497,1.9495,1.9498,1.9508,1.9515,1.9523,1.9549,1.955,1.9563,1.9567,1.9571,1.9574,1.9589,1.9595,1.9532,1.9532,1.9532,0,0,1.9489,1.9489,1.9496,1.9504,1.9506,1.9518,1.9496,1.9509,1.9518,1.9499,1.9517,1.9516,1.9519,1.9542,1.9552,1.9543,1.9592,1.9574,1.9578,1.9578,1.9593,1.9599,1.9604,1.9533,1.9533,1.9533,0,0,1.9526,1.9526,1.9543,1.9545,1.9548,1.9544,1.9548,1.9548,1.9547,1.9565,1.9552,1.9562,1.9579,1.9582,1.9586,1.9626,1.9615,1.9629,1.9654,1.9669,1.9674,1.9678,1.9693,1.9699,1.9632,1.9633,1.9633,0,1.9546,1.9563,1.9553,1.9568,1.9572,1.9556,1.9574,1.9577,1.9583,1.9587,1.9576,1.9597,1.9598,1.9623,1.9633,1.9636,1.9641,1.9629,1.9674,1.9678,1.9682,1.9696,1.9702,1.9634,1.9634,1.9634,1.9634,0,1.9588,1.96,1.9614,1.962,1.9626,1.9642,1.9636,1.9644,1.9637,1.9635,1.9654,1.9655,1.9664,1.967,1.9663,1.9694,1.9688,1.9676,1.9656,1.969,1.9703,1.9709,1.9637,1.9636,1.9636,1.9635,0,0,1.9638,1.9641,1.9646,1.9649,1.9652,1.9662,1.9678,1.9687,1.9695,1.97,1.9713,1.9729,1.9718,1.9723,1.9716,1.973,1.9763,1.9716,1.9716,1.9725,1.9799,1.9808,1.9815,1.9756,1.9757,1.9758,1.9799,0,1.9675,1.9702,1.9695,1.9722,1.9734,1.972,1.9735,1.9738,1.9737,1.9747,1.9746,1.9757,1.9742,1.9745,1.9758,1.9756,1.9778,1.9753,1.977,1.977,1.9769,1.9821,1.9831,1.9869,1.9804,1.9805,1.9805,0,1.972,1.9727,1.9756,1.9759,1.9763,1.9776,1.9785,1.9795,1.98,1.9798,1.9804,1.9796,1.9813,1.9794,1.9818,1.9802,1.9808,1.9809,1.981,1.9811,1.979,1.9824,1.9881,1.9887,1.9813,1.9813,1.9812,0,1.9755,1.9772,1.9792,1.9795,1.9798,1.9808,1.981,1.9814,1.982,1.9829,1.9833,1.9843,1.9849,1.9857,1.9852,1.9839,1.9878,1.9858,1.9877,1.9878,1.9886,1.9885,1.9945,1.989,1.989,1.989,1.989,0,1.9795,1.9814,1.9808,1.982,1.984,1.9833,1.9854,1.9854,1.9858,1.9871,1.986,1.9872,1.9865,1.9877,1.9873,1.9895,1.9897,1.9897,1.9896,1.9898,1.9898,1.9902,1.9899,1.9891,1.9891,1.9891,1.989,0,1.9837,1.9834,1.9855,1.9857,1.9858,1.9873,1.9875,1.9887,1.9886,1.9902,1.9906,1.9904,1.9918,1.9914,1.9928,1.9926,1.9953,1.9949,1.9952,1.9951,1.9971,1.9969,2.0035,2.0043,1.9983,1.9983,1.9984,0,1.9864,1.9878,1.9882,1.989,1.9893,1.9905,1.9912,1.9906,1.9914,1.9922,1.9934,1.9947,1.9957,1.998,1.998,1.9992,1.9987,2.001,1.9989,1.9992,1.9989,1.9988,1.999,2.0014,2.0014,2.0015,2.0015,0,1.9911,1.9909,1.992,1.9931,1.994,1.9948,1.9955,1.9962,1.9956,1.9966,1.9981,1.9989,2.0005,2.0018,2.0029,2.0032,2.0024,2.0022,2.0027,2.003,2.0031,2.0031,1.9963,2.002,2.002,2.002,2.0019,2.0019,1.9946,1.9959,1.9964,1.9977,1.9982,1.9989,2.0001,2.0002,2.0013,2.0026,2.0022,2.0039,2.0045,2.0059,2.0064,2.0078,2.0069,2.0076,2.0078,2.008,2.0083,2.0029,2.0079,2.0079,2.0079,2.0079,2.0079,0,1.9994,1.9997,2.0009,2.002,2.003,2.0021,2.0029,2.0039,2.0054,2.006,2.0071,2.0088,2.0102,2.0104,2.0117,2.0128,2.0124,2.0132,2.0131,2.0132,2.009,2.0084,2.0134,2.0134,2.0134,2.0134,2.0134,2.0134,2.002,2.004,2.004,2.0063,2.0067,2.0083,2.0088,2.0096,2.0101,2.0121,2.0133,2.0134,2.0139,2.0153,2.0166,2.0166,2.0172,2.0181,2.018,2.014,2.0135,2.0129,2.0124,2.0182,2.0182,2.0221,2.0221,2.0221]},{"header":{"parameterUnit":"m.s-1","parameterCategory":1,"la1":30.2991,"la2":30.254,"lo1":-89.0895,"lo2":-89.0444,"dy":0.0017,"dx":0.0017,"nx":28,"ny":28,"refTime":"2025-12-01T03:00:00:Z","depth":0,"parameterNumber":3,"parameterNumberName":"V-component_of_WINDS"},"data":[0,0,0,0,0,0,0,0,0,0,0,0,0,0,0,0,0,0,0,0,0,0,0,0,0,0,0,0,0,0,0,0,0,0,0,0,0,0,0,0,0,0,0,0,0,0,0,0,0,0,0,0,0,0,0,0,0,0,-7.0919,-7.0921,0,-7.1053,-7.1054,-7.1056,-7.1038,-7.1036,-7.1034,-7.1032,-7.1162,-7.1167,-7.1172,0,0,0,0,0,0,0,0,0,0,0,0,0,-7.0644,-7.0649,-7.0919,-7.0921,-7.0922,-7.1052,-7.1054,-7.1056,-7.1039,-7.1036,-7.1033,-7.1031,-7.116,-7.1166,-7.1173,0,0,0,0,0,0,0,0,0,0,0,0,0,-7.0769,-7.0651,-7.0919,-7.093,-7.0932,-7.1052,-7.1054,-7.1057,-7.1039,-7.1036,-7.1033,-7.103,-7.1158,-7.1166,-7.1174,-7.129,0,0,-7.1199,-7.1203,0,0,0,0,0,0,0,0,-7.0762,-7.0779,-7.0926,-7.0929,-7.0932,-7.1026,-7.1005,-7.1134,-7.104,-7.0998,-7.1032,-7.1028,-7.1119,-7.113,-7.1162,-7.1296,-7.1301,-7.12,-7.1205,-7.1208,-7.1211,0,0,0,0,0,0,0,-7.0753,-7.0773,-7.0972,-7.0928,-7.0932,-7.0926,-7.094,-7.1029,-7.1075,-7.1002,-7.1001,-7.1017,-7.1119,-7.1154,-7.1165,-7.1303,-7.1199,-7.1207,-7.1212,-7.1215,-7.154,-7.1544,0,0,0,0,0,0,-7.0743,-7.0766,-7.0967,-7.0976,-7.0837,-7.0934,-7.095,-7.0999,-7.1074,-7.1082,-7.102,-7.1016,-7.1142,-7.1155,-7.1169,-7.1311,-7.1208,-7.1216,-7.1221,-7.1537,-7.1541,-7.1545,0,0,0,0,0,0,-7.0737,-7.0761,-7.0962,-7.0871,-7.0896,-7.0942,-7.0997,-7.1003,-7.1038,-7.1088,-7.1095,-7.1047,-7.1139,-7.1158,-7.1261,-7.1315,-7.122,-7.1227,-7.1532,-7.1538,-7.1543,-7.1595,0,0,0,0,0,0,-7.0729,-7.0759,-7.0804,-7.0872,-7.0901,-7.1053,-7.1001,-7.1008,-7.1053,-7.1049,-7.1115,-7.1123,-7.1138,-7.1249,-7.1269,-7.1325,-7.1233,-7.1528,-7.1535,-7.1542,-7.1588,-7.1601,-7.1612,0,0,0,0,0,-7.0719,-7.0811,-7.0807,-7.0831,-7.0959,-7.1056,-7.1073,-7.109,-7.1057,-7.1103,-7.1135,-7.1121,-7.1306,-7.1259,-7.1282,-7.1341,-7.1524,-7.1533,-7.1541,-7.1583,-7.1599,-7.1612,0,0,0,0,0,0,-7.0746,-7.082,-7.0816,-7.0933,-7.0989,-7.1053,-7.1111,-7.1106,-7.1171,-7.1164,-7.1181,-7.1196,-7.1301,-7.1331,-7.1278,-7.1458,-7.141,-7.1424,-7.1434,-7.145,-7.1462,-7.1452,-7.124,0,0,0,0,0,-7.0766,-7.084,-7.0901,-7.0998,-7.1027,-7.1065,-7.1107,-7.1117,-7.1174,-7.1196,-7.1236,-7.1291,-7.1361,-7.1407,-7.1475,-7.1593,-7.1607,-7.1645,-7.1657,-7.1666,-7.1677,-7.1743,-7.1761,-7.1573,-7.1573,-7.1573,0,0,-7.0807,-7.0857,-7.0902,-7.1005,-7.1049,-7.1125,-7.1084,-7.1165,-7.1221,-7.1208,-7.1309,-7.134,-7.1402,-7.1514,-7.1564,-7.1542,-7.1733,-7.1677,-7.1684,-7.169,-7.1753,-7.1771,-7.1787,-7.1578,-7.1577,-7.1576,0,0,-7.092,-7.0966,-7.1053,-7.1099,-7.1168,-7.1193,-7.1214,-7.128,-7.1301,-7.1403,-7.1396,-7.1461,-7.1582,-7.1627,-7.1666,-7.18,-7.1789,-7.1821,-7.1884,-7.1948,-7.1962,-7.1976,-7.2024,-7.2041,-7.1832,-7.1832,-7.1832,0,-7.0962,-7.1078,-7.1098,-7.1181,-7.1227,-7.1222,-7.131,-7.1353,-7.1439,-7.147,-7.1444,-7.1598,-7.1638,-7.1761,-7.1794,-7.1825,-7.1849,-7.1813,-7.1959,-7.1973,-7.1985,-7.2031,-7.2049,-7.1836,-7.1835,-7.1835,-7.1835,0,-7.1126,-7.1206,-7.1268,-7.1355,-7.1408,-7.1492,-7.1525,-7.1575,-7.158,-7.1607,-7.1712,-7.1761,-7.184,-7.1869,-7.1874,-7.1993,-7.1978,-7.1955,-7.1908,-7.2006,-7.205,-7.2068,-7.1841,-7.1839,-7.1838,-7.1837,0,0,-7.1258,-7.1358,-7.138,-7.1421,-7.1497,-7.1559,-7.1643,-7.1723,-7.1766,-7.1826,-7.1897,-7.2001,-7.1982,-7.2026,-7.2036,-7.2092,-7.2196,-7.2063,-7.2065,-7.2086,-7.2331,-7.2347,-7.2367,-7.219,-7.2193,-7.2196,-7.2326,0,-7.138,-7.1533,-7.1555,-7.1689,-7.1763,-7.1761,-7.1835,-7.1889,-7.1917,-7.1983,-7.2013,-7.2087,-7.2056,-7.2083,-7.2138,-7.2171,-7.2245,-7.2162,-7.2255,-7.2258,-7.224,-7.239,-7.2407,-7.2528,-7.2343,-7.2346,-7.2348,0,-7.1541,-7.161,-7.1752,-7.1821,-7.1853,-7.1919,-7.1995,-7.2059,-7.212,-7.2137,-7.2188,-7.2191,-7.2278,-7.2228,-7.2347,-7.229,-7.233,-7.2352,-7.2357,-7.2366,-7.2309,-7.2403,-7.2566,-7.2584,-7.2375,-7.2373,-7.2371,0,-7.1625,-7.1752,-7.1854,-7.1888,-7.1971,-7.2018,-7.2054,-7.2112,-7.2159,-7.2225,-7.2255,-7.2329,-7.2369,-7.2425,-7.2448,-7.241,-7.2567,-7.2518,-7.2582,-7.2582,-7.2615,-7.2612,-7.2787,-7.264,-7.264,-7.264,-7.2639,0,-7.1758,-7.1845,-7.1893,-7.1956,-7.2054,-7.2078,-7.2173,-7.2207,-7.226,-7.2329,-7.233,-7.2394,-7.242,-7.2488,-7.2506,-7.2603,-7.262,-7.2635,-7.2639,-7.2636,-7.2634,-7.2661,-7.2653,-7.2644,-7.2643,-7.2642,-7.2642,0,-7.1867,-7.1902,-7.2014,-7.2084,-7.2104,-7.2173,-7.2232,-7.2292,-7.2321,-7.2408,-7.2429,-7.2473,-7.2553,-7.2582,-7.2678,-7.2691,-7.2803,-7.28,-7.2783,-7.2784,-7.2847,-7.284,-7.3044,-7.3072,-7.2907,-7.2909,-7.291,0,-7.1949,-7.2017,-7.2096,-7.2144,-7.2182,-7.2258,-7.2307,-7.2334,-7.2384,-7.2461,-7.2512,-7.2593,-7.2658,-7.2786,-7.2825,-7.2899,-7.2898,-7.2964,-7.2908,-7.2903,-7.2899,-7.2895,-7.2902,-7.2974,-7.2976,-7.2977,-7.2978,0,-7.2093,-7.2108,-7.218,-7.2259,-7.2319,-7.2381,-7.2442,-7.248,-7.2515,-7.2572,-7.2656,-7.2707,-7.2808,-7.2887,-7.2964,-7.2999,-7.2995,-7.2996,-7.3015,-7.3011,-7.2999,-7.3007,-7.2812,-7.2991,-7.299,-7.2989,-7.2988,-7.2987,-7.2191,-7.2252,-7.2318,-7.2399,-7.2448,-7.2506,-7.2567,-7.2604,-7.2675,-7.2761,-7.2772,-7.2862,-7.2922,-7.3025,-7.3064,-7.3134,-7.3115,-7.3142,-7.3149,-7.3155,-7.316,-7.2989,-7.3147,-7.3147,-7.3147,-7.3146,-7.3146,0,-7.2335,-7.2378,-7.2453,-7.2539,-7.2603,-7.2597,-7.2664,-7.2717,-7.2797,-7.2855,-7.2921,-7.3018,-7.3096,-7.3143,-7.322,-7.3267,-7.3267,-7.3287,-7.3283,-7.3292,-7.3172,-7.3148,-7.3285,-7.3285,-7.3285,-7.3285,-7.3285,-7.3285,-7.2418,-7.2521,-7.2544,-7.2672,-7.2713,-7.2804,-7.2843,-7.2896,-7.2943,-7.3052,-7.3118,-7.3149,-7.3203,-7.3285,-7.3356,-7.3367,-7.3396,-7.3417,-7.3427,-7.3314,-7.33,-7.3286,-7.3264,-7.3423,-7.3423,-7.3541,-7.3542,-7.3543]}]]